Location: Occidental Observatory
(38.4214°N, 122.9202°W)
Time: 04:22:19
(UTC-08:00)

Daily predictions for brighter satellites

Satellite Brightness Start Highest point End
(mag) Time Altitude Azimuth Time Altitude Azimuth Time Altitude Azimuth
Cosmos 2369 Rocket 4.2 03:37:58 20° NNE 03:37:58 20° NNE 03:39:39 10° NNE
Lacrosse 5 3.9 03:46:45 24° NE 03:46:45 24° NE 03:48:43 10° NE
ATLAS 5 CENTAUR R/B 3.6 04:09:31 25° NNE 04:09:31 25° NNE 04:11:47 10° NNE
Cosmos 1943 Rocket 3.0 04:15:00 42° N 04:15:00 42° N 04:18:39 10° NNE
USA 234 3.3 04:09:08 10° NE 04:15:38 70° SE 04:16:39 61° S
Cosmos 1452 Rocket 3.7 04:22:57 65° ESE 04:23:10 66° ESE 04:28:25 10° NNE
CZ-4C R/B 2.2 04:25:11 66° SE 04:25:29 67° ESE 04:31:15 10° NE
CZ-4B R/B 3.5 04:22:43 10° N 04:27:19 58° NNW 04:27:19 58° NNW
ATLAS 3B R/B 4.3 04:25:56 10° S 04:32:38 35° ESE 04:39:10 10° NE
ADEOS II 2.6 04:32:13 10° N 04:36:07 47° NNW 04:36:07 47° NNW
Okean O Rocket 4.2 04:34:34 10° N 04:34:41 11° N 04:34:41 11° N
Cosmos 676 Rocket 3.9 04:41:07 25° NNW 04:44:21 87° WSW 04:49:41 10° SSE
Cosmos 1553 Rocket 4.4 04:40:09 10° S 04:46:12 62° E 04:52:24 10° NNE
Cosmos 1140 Rocket 3.8 04:47:53 10° NNW 04:53:06 68° ENE 04:58:19 10° SSE
Cosmos 2221 Rocket 3.5 04:53:34 47° SSW 04:54:53 84° W 04:59:28 10° N
Meteor 1-14 Rocket 4.2 04:49:13 10° N 04:55:03 85° E 05:00:42 10° S
ATLAS CENTAUR R/B 3.9 04:54:33 38° W 04:56:58 49° SW 05:13:55 10° SSE
Okean 1-7 2.8 04:59:41 34° SSW 05:01:29 83° W 05:05:45 10° N
Meteor 1-31 Rocket 2.7 05:05:23 10° N 05:09:13 59° WNW 05:09:20 59° W
Meteor 1-26 Rocket 4.3 05:06:36 26° SW 05:09:36 52° WNW 05:15:05 10° N
Cosmos 1656 Rocket 3.9 05:12:55 31° WSW 05:15:19 50° WNW 05:20:51 10° NNE
Meteor 1-25 Rocket 4.2 05:11:38 10° N 05:17:31 88° W 05:23:21 10° S
Cosmos 2369 Rocket 4.2 05:19:46 12° NW 05:19:46 12° NW 05:21:05 10° NNW
Cosmos 2219 3.1 05:13:28 10° NNW 05:19:10 88° WSW 05:24:47 10° SSE
Cosmos 1782 Rocket 3.8 05:18:21 10° NNW 05:22:37 46° W 05:26:50 10° SSW
GEOS 3 Rocket 3.9 05:17:52 10° S 05:22:39 42° WSW 05:25:20 23° WNW
Cosmos 2227 Rocket 4.0 05:17:52 10° N 05:22:54 31° ENE 05:27:54 10° ESE
Cosmos 1850 Rocket 4.0 05:21:37 10° NNW 05:26:59 87° ENE 05:32:17 10° SSE
Lacrosse 5 3.3 05:25:58 19° NW 05:27:11 21° NNW 05:30:59 10° NNE
Tiangong 1 1.8 05:27:16 33° NNW 05:27:40 35° N 05:30:24 10° ENE
Cosmos 1932 4.5 05:22:29 10° SSW 05:28:50 90° WNW 05:35:21 10° NNE
Cosmos 1954 Rocket 4.5 05:28:05 10° NW 05:32:58 38° WSW 05:37:49 10° SSW
SKYMED 2 3.5 05:29:14 10° SSE 05:33:35 87° W 05:37:56 10° NNW
CZ-4 R/B 4.5 05:30:45 10° NE 05:33:44 19° E 05:36:41 10° SE
Okean-O 3.4 05:32:50 10° N 05:36:44 31° WNW 05:39:12 18° WSW
Ariane Rocket 3.8 05:31:49 10° NNE 05:36:49 55° E 05:41:46 10° S
Cosmos 1745 Rocket 3.9 05:31:44 10° NNW 05:37:50 67° W 05:43:53 10° S
Cosmos 1420 Rocket 4.4 05:34:39 14° SW 05:38:46 40° WNW 05:43:39 10° N
Cosmos 1386 Rocket 4.4 05:33:44 10° N 05:39:50 85° W 05:45:59 10° S
Meteor 2-10 Rocket 4.4 05:40:04 20° WSW 05:41:50 24° WNW 05:45:57 10° NNW
Meteor 1-10 Rocket 4.1 05:37:07 10° SSW 05:42:39 75° W 05:48:19 10° N
NOAA 6 4.2 05:40:16 10° N 05:45:15 50° WNW 05:50:11 10° SW
Cosmos 1674 Rocket 3.9 05:41:12 10° S 05:45:33 69° E 05:49:59 10° NNE
COSMOS 2455 4.4 05:40:57 10° S 05:46:26 38° ESE 05:51:57 10° NE
IDEFIX/ARIANE 42P 4.2 05:44:52 10° NNE 05:49:45 39° E 05:54:34 10° SSE
Okean 2 Rocket 3.8 05:47:42 10° NNW 05:51:31 29° W 05:55:19 10° SSW
Gblst 52 Del rocket 4.5 05:46:30 10° SW 05:52:10 78° SE 05:58:33 10° NE
ATLAS 5 CENTAUR R/B 4.0 05:52:07 10° NW 05:52:48 10° NNW 05:53:29 10° NNW
Meteor 1-28 Rocket 3.1 05:50:31 10° S 05:54:12 65° W 05:57:56 10° NNW
DELTA 2 R/B (2) 4.4 05:53:22 15° SW 05:55:07 35° SSE 05:56:54 10° E
Cosmos 1331 Rocket 4.2 05:52:04 10° S 05:57:12 74° ESE 06:02:25 10° NNE
Cosmos 1943 Rocket 4.0 05:56:33 10° WNW 05:57:48 11° NW 05:59:24 10° NNW
DMSP B5D1-3 4.5 05:53:01 10° S 05:58:04 67° WSW 06:03:10 10° NNW
USA 234 3.9 05:52:28 10° NNE 05:58:20 37° NNW 06:04:01 11° W
Cosmos 1536 4.5 05:55:39 10° N 05:59:24 38° E 06:03:10 10° SSE
USA 238 DEB 3.9 05:53:22 10° SSW 06:00:22 81° ESE 06:07:24 10° NE
USA 238 3.9 05:53:27 10° SSW 06:00:27 80° ESE 06:07:30 10° NE
Thor Agena Rocket 4.5 05:56:39 10° SSW 06:00:58 26° W 06:05:17 10° NW
Delta 2 Rocket 4.1 05:58:56 12° WSW 06:03:18 64° S 06:08:40 10° E
Lacrosse 5 rocket 2.3 06:01:26 10° NNW 06:04:50 38° NE 06:08:13 10° ESE
Okean 1 Rocket 3.6 06:03:17 10° N 06:07:40 63° E 06:11:59 10° SSE
Cosmos 2151 Rocket 4.0 06:07:03 10° NNW 06:11:14 39° W 06:15:24 10° SSW
Cosmos 1110 Rocket 3.9 06:06:09 10° SSW 06:11:17 71° WNW 06:16:28 10° NNE
Cosmos 1607 4.1 06:07:06 10° SW 06:13:00 51° NW 06:19:02 10° NNE
CZ-4C R/B 3.6 06:10:30 10° W 06:14:37 21° NW 06:19:09 10° N
Meteor 1-27 Rocket 3.8 06:12:15 10° SSW 06:17:57 63° W 06:23:49 10° N
Cosmos 1606 3.8 06:16:26 10° SW 06:19:34 23° WNW 06:22:45 10° NNW
CSL-04 Rocket 3.7 06:14:34 10° N 06:19:56 68° WNW 06:25:20 10° SSW
Cosmos 1782 4.2 06:18:29 10° WSW 06:21:13 18° WNW 06:24:00 10° NNW
COSMO-SKYMED 1 3.6 06:18:17 10° SSW 06:21:48 24° W 06:25:20 10° NW
Cosmos 1602 3.9 06:18:05 10° NNW 06:21:57 54° W 06:25:48 10° S
ATLAS 3B R/B 3.1 06:15:51 10° SW 06:23:10 51° NW 06:30:16 10° NNE
Cosmos 2082 3.8 06:18:35 10° NNW 06:24:17 87° ENE 06:29:54 10° SSE
Orbus 7S? 4.4 06:20:12 10° SW 06:29:53 82° NW 06:33:56 10° NE
